{"data":{"norad_id":65107,"epoch":"2026-05-25T03:33:04.112064Z","epoch_age_seconds":72701,"freshness":"FRESH","line1":"1 65107U 25168B   26145.14796426 -.00000066  00000+0  12444-3 0  9998","line2":"2 65107  50.0012  48.4476 0009321  20.5528 339.5717 13.29317469 39629","mean_motion":13.29317469,"eccentricity":0.0009321,"inclination_deg":50.0012,"raan_deg":48.4476,"arg_perigee_deg":20.5528,"mean_anomaly_deg":339.5717,"bstar":0.00012444,"rev_number":3962,"period_min":108.3262676961,"perigee_km":1142.3224169571,"apogee_km":1156.3551373009,"semimajor_km":7527.475777129,"source":"CELESTRAK","updated_at":"2026-05-25T13:38:05.133518Z"}}